Time,TemperatureF,DewpointF,PressureIn,WindDirection,WindDirectionDegrees,WindSpeedMPH,WindSpeedGustMPH,Humidity,HourlyPrecipIn,Conditions,Clouds,dailyrainin,SolarRadiationWatts/m^2,SoftwareType,DateUTC
2013-04-10 00:15:00,38.5,36.0,29.79,NNW,342,4.0,12.0,92,0.31,,,0.21,0,weatherlink.com 1.10,2013-04-10 05:15:00,
2013-04-10 00:32:00,39.1,37.0,29.81,NNE,25,0.0,2.0,93,0.52,,,0.43,0,weatherlink.com 1.10,2013-04-10 05:32:00,
2013-04-10 00:50:00,39.6,38.0,29.80,NNE,22,0.0,1.0,94,0.52,,,0.51,0,weatherlink.com 1.10,2013-04-10 05:50:00,
2013-04-10 01:08:00,40.1,39.0,29.79,NNE,20,0.0,0.0,94,0.52,,,0.54,0,weatherlink.com 1.10,2013-04-10 06:08:00,
2013-04-10 01:25:00,40.5,39.0,29.80,North,5,0.0,2.0,94,0.25,,,0.57,0,weatherlink.com 1.10,2013-04-10 06:25:00,
2013-04-10 01:44:00,40.9,39.0,29.72,North,5,0.0,6.0,94,0.11,,,0.60,0,weatherlink.com 1.10,2013-04-10 06:44:00,
2013-04-10 02:01:00,41.3,40.0,29.73,West,278,6.0,18.0,94,0.09,,,0.63,0,weatherlink.com 1.10,2013-04-10 07:01:00,
2013-04-10 02:19:00,41.6,40.0,29.78,WSW,240,18.0,18.0,94,0.08,,,0.63,0,weatherlink.com 1.10,2013-04-10 07:19:00,
2013-04-10 02:36:00,40.2,39.0,29.78,WSW,246,9.0,17.0,94,0.06,,,0.64,0,weatherlink.com 1.10,2013-04-10 07:36:00,
2013-04-10 02:54:00,39.8,38.0,29.78,West,271,7.0,15.0,94,0.02,,,0.64,0,weatherlink.com 1.10,2013-04-10 07:54:00,
2013-04-10 03:12:00,38.9,37.0,29.79,WNW,288,8.0,17.0,94,0.01,,,0.64,0,weatherlink.com 1.10,2013-04-10 08:12:00,
2013-04-10 08:46:00,36.8,35.0,29.90,WNW,283,0.0,5.0,94,0.00,,,0.74,25,weatherlink.com 1.10,2013-04-10 13:46:00,
2013-04-10 09:03:00,36.8,35.0,29.90,West,269,0.0,9.0,94,0.00,,,0.74,19,weatherlink.com 1.10,2013-04-10 14:03:00,
2013-04-10 09:19:00,36.6,35.0,29.89,West,278,6.0,12.0,94,0.01,,,0.75,32,weatherlink.com 1.10,2013-04-10 14:19:00,
2013-04-10 09:36:00,36.3,35.0,29.90,WNW,293,7.0,12.0,94,0.03,,,0.77,39,weatherlink.com 1.10,2013-04-10 14:36:00,
2013-04-10 09:52:00,36.0,34.0,29.91,West,275,5.0,12.0,94,0.04,,,0.78,39,weatherlink.com 1.10,2013-04-10 14:52:00,
2013-04-10 10:09:00,36.0,34.0,29.93,West,261,6.0,11.0,94,0.04,,,0.79,32,weatherlink.com 1.10,2013-04-10 15:09:00,
2013-04-10 10:25:00,35.6,34.0,29.92,West,274,4.0,11.0,94,0.05,,,0.81,54,weatherlink.com 1.10,2013-04-10 15:25:00,
2013-04-10 10:42:00,35.6,34.0,29.90,West,275,8.0,10.0,94,0.04,,,0.81,111,weatherlink.com 1.10,2013-04-10 15:42:00,
2013-04-10 10:58:00,36.0,34.0,29.90,WNW,297,6.0,11.0,94,0.04,,,0.82,111,weatherlink.com 1.10,2013-04-10 15:58:00,
2013-04-10 11:15:00,36.1,35.0,29.89,West,277,4.0,13.0,94,0.04,,,0.83,109,weatherlink.com 1.10,2013-04-10 16:15:00,
2013-04-10 11:31:00,36.3,35.0,29.91,West,270,7.0,12.0,94,0.02,,,0.83,83,weatherlink.com 1.10,2013-04-10 16:31:00,
2013-04-10 11:47:00,36.5,35.0,29.91,WSW,242,3.0,15.0,94,0.02,,,0.83,95,weatherlink.com 1.10,2013-04-10 16:47:00,
2013-04-10 12:04:00,36.6,35.0,29.89,WNW,288,5.0,12.0,94,0.02,,,0.84,190,weatherlink.com 1.10,2013-04-10 17:04:00,
2013-04-10 12:20:00,37.7,36.0,29.88,WNW,284,6.0,10.0,94,0.01,,,0.84,232,weatherlink.com 1.10,2013-04-10 17:20:00,
2013-04-10 12:37:00,38.4,37.0,29.87,WNW,283,10.0,15.0,94,0.01,,,0.84,192,weatherlink.com 1.10,2013-04-10 17:37:00,
2013-04-10 12:53:00,37.7,36.0,29.87,WNW,296,6.0,14.0,92,0.00,,,0.84,137,weatherlink.com 1.10,2013-04-10 17:53:00,
2013-04-10 13:09:00,37.2,35.0,29.90,WNW,286,6.0,15.0,91,0.00,,,0.84,79,weatherlink.com 1.10,2013-04-10 18:09:00,
2013-04-10 13:26:00,37.0,35.0,29.89,West,275,9.0,13.0,91,0.00,,,0.84,90,weatherlink.com 1.10,2013-04-10 18:26:00,
2013-04-10 13:42:00,36.8,34.0,29.89,West,273,9.0,15.0,91,0.00,,,0.84,79,weatherlink.com 1.10,2013-04-10 18:42:00,
2013-04-10 13:58:00,36.8,35.0,29.90,WNW,295,1.0,12.0,92,0.00,,,0.84,60,weatherlink.com 1.10,2013-04-10 18:58:00,
2013-04-10 14:15:00,36.9,35.0,29.90,WSW,257,6.0,12.0,92,0.01,,,0.85,76,weatherlink.com 1.10,2013-04-10 19:15:00,
2013-04-10 14:32:00,36.7,35.0,29.86,WNW,298,7.0,10.0,93,0.01,,,0.85,93,weatherlink.com 1.10,2013-04-10 19:32:00,
2013-04-10 14:48:00,36.8,35.0,29.85,West,279,0.0,11.0,93,0.01,,,0.85,107,weatherlink.com 1.10,2013-04-10 19:48:00,
2013-04-10 15:07:00,37.1,35.0,29.86,West,277,3.0,13.0,93,0.02,,,0.86,90,weatherlink.com 1.10,2013-04-10 20:07:00,
2013-04-10 15:24:00,37.1,36.0,29.88,West,277,6.0,12.0,94,0.01,,,0.86,69,weatherlink.com 1.10,2013-04-10 20:24:00,
2013-04-10 15:42:00,37.1,36.0,29.84,NW,325,0.0,9.0,94,0.01,,,0.86,72,weatherlink.com 1.10,2013-04-10 20:42:00,
2013-04-10 16:00:00,37.4,36.0,29.84,WNW,288,6.0,12.0,94,0.00,,,0.86,104,weatherlink.com 1.10,2013-04-10 21:00:00,
2013-04-10 16:18:00,37.6,36.0,29.80,NW,306,0.0,13.0,93,0.00,,,0.86,125,weatherlink.com 1.10,2013-04-10 21:18:00,
2013-04-10 16:37:00,37.6,36.0,29.80,WNW,300,0.0,13.0,93,0.00,,,0.86,74,weatherlink.com 1.10,2013-04-10 21:37:00,
2013-04-10 16:54:00,37.9,36.0,29.82,WNW,287,5.0,10.0,94,0.00,,,0.86,58,weatherlink.com 1.10,2013-04-10 21:54:00,
2013-04-10 17:12:00,37.9,36.0,29.82,WNW,284,8.0,11.0,94,0.00,,,0.86,63,weatherlink.com 1.10,2013-04-10 22:12:00,
2013-04-10 17:29:00,37.9,36.0,29.81,WNW,294,4.0,13.0,94,0.00,,,0.86,58,weatherlink.com 1.10,2013-04-10 22:29:00,
2013-04-10 17:47:00,37.8,36.0,29.80,West,279,6.0,9.0,94,0.00,,,0.86,32,weatherlink.com 1.10,2013-04-10 22:47:00,
2013-04-10 18:05:00,37.5,36.0,29.81,WNW,282,6.0,10.0,94,0.00,,,0.86,26,weatherlink.com 1.10,2013-04-10 23:05:00,
2013-04-10 18:22:00,37.3,36.0,29.82,West,277,6.0,10.0,94,0.00,,,0.86,23,weatherlink.com 1.10,2013-04-10 23:22:00,
2013-04-10 18:40:00,37.2,36.0,29.82,West,272,3.0,10.0,94,0.00,,,0.86,23,weatherlink.com 1.10,2013-04-10 23:40:00,
2013-04-10 18:57:00,37.0,35.0,29.83,West,269,5.0,11.0,94,0.00,,,0.86,19,weatherlink.com 1.10,2013-04-10 23:57:00,
2013-04-10 19:17:00,36.9,35.0,29.82,West,272,10.0,11.0,94,0.01,,,0.87,26,weatherlink.com 1.10,2013-04-11 00:17:00,
2013-04-10 19:34:00,36.6,35.0,29.82,West,265,6.0,12.0,94,0.01,,,0.87,7,weatherlink.com 1.10,2013-04-11 00:34:00,
2013-04-10 19:50:00,36.4,35.0,29.82,West,268,6.0,15.0,94,0.01,,,0.87,0,weatherlink.com 1.10,2013-04-11 00:50:00,
2013-04-10 20:07:00,36.1,35.0,29.81,West,268,8.0,12.0,94,0.01,,,0.87,0,weatherlink.com 1.10,2013-04-11 01:07:00,
2013-04-10 20:23:00,35.9,34.0,29.81,WSW,258,7.0,13.0,94,0.00,,,0.87,0,weatherlink.com 1.10,2013-04-11 01:23:00,
2013-04-10 20:39:00,35.6,34.0,29.82,WSW,255,7.0,15.0,94,0.00,,,0.87,0,weatherlink.com 1.10,2013-04-11 01:39:00,
2013-04-10 20:55:00,35.4,34.0,29.82,West,270,6.0,16.0,94,0.00,,,0.87,0,weatherlink.com 1.10,2013-04-11 01:55:00,
2013-04-10 21:12:00,35.4,34.0,29.83,WSW,252,6.0,11.0,94,0.00,,,0.87,0,weatherlink.com 1.10,2013-04-11 02:12:00,
2013-04-10 21:28:00,35.3,34.0,29.84,West,271,8.0,14.0,94,0.00,,,0.87,0,weatherlink.com 1.10,2013-04-11 02:28:00,
2013-04-10 21:44:00,35.3,33.0,29.84,West,273,5.0,16.0,93,0.00,,,0.87,0,weatherlink.com 1.10,2013-04-11 02:44:00,
2013-04-10 22:00:00,35.0,33.0,29.84,West,277,7.0,15.0,93,0.00,,,0.87,0,weatherlink.com 1.10,2013-04-11 03:00:00,
2013-04-10 22:18:00,34.7,33.0,29.86,West,275,10.0,16.0,93,0.00,,,0.87,0,weatherlink.com 1.10,2013-04-11 03:18:00,
2013-04-10 22:35:00,34.4,33.0,29.86,West,262,10.0,15.0,93,0.00,,,0.87,0,weatherlink.com 1.10,2013-04-11 03:35:00,
2013-04-10 22:52:00,34.3,33.0,29.86,West,263,6.0,13.0,94,0.00,,,0.87,0,weatherlink.com 1.10,2013-04-11 03:52:00,
2013-04-10 23:08:00,34.2,33.0,29.86,West,270,7.0,15.0,94,0.00,,,0.87,0,weatherlink.com 1.10,2013-04-11 04:08:00,
2013-04-10 23:24:00,34.1,33.0,29.86,WSW,257,11.0,17.0,94,0.00,,,0.87,0,weatherlink.com 1.10,2013-04-11 04:24:00,
2013-04-10 23:41:00,34.0,32.0,29.87,West,275,6.0,17.0,94,0.00,,,0.87,0,weatherlink.com 1.10,2013-04-11 04:41:00,
2013-04-10 23:57:00,33.9,32.0,29.87,West,266,10.0,14.0,94,0.00,,,0.87,0,weatherlink.com 1.10,2013-04-11 04:57:00,